This is the latest recevied weather packets stored in our database for station/object WA4IKQ. If no packets are shown the sender has not sent any weather packets the latest 10 day(s).
| Time | Temp. | Humidity | Pressure | Rain* | Wind** | Luminosity | Snow |
|---|---|---|---|---|---|---|---|
| 1777839701 | 25.56° C | 56% | 1016.1 hPa | 0 mm | 1.34 m/s, 14° | - | - |
| 1777839279 | 25.56° C | 56% | 1016.1 hPa | 0 mm | 1.34 m/s, 14° | - | - |
| 1777839223 | 25.56° C | 57% | 1016.1 hPa | 0 mm | 2.24 m/s, 65° | - | - |
| 1777839102 | 25° C | 58% | 1016 hPa | 0 mm | 2.24 m/s, 66° | - | - |
| 1777838977 | 25.56° C | 57% | 1016.1 hPa | 0 mm | 2.24 m/s, 65° | - | - |
| 1777838681 | 25° C | 58% | 1016 hPa | 0 mm | 2.24 m/s, 66° | - | - |
| 1777838594 | 25° C | 57% | 1016.2 hPa | 0 mm | 3.13 m/s, 41° | - | - |
| 1777838376 | 25° C | 57% | 1016.2 hPa | 0 mm | 3.13 m/s, 41° | - | - |
| 1777838073 | 25° C | 58% | 1016.2 hPa | 0 mm | 3.13 m/s, 10° | - | - |
| 1777837774 | 25° C | 59% | 1016.3 hPa | 0 mm | 1.79 m/s, 42° | - | - |
| 1777837476 | 25° C | 59% | 1016.4 hPa | 0 mm | 1.79 m/s, 38° | - | - |
| 1777837174 | 24.44° C | 59% | 1016.5 hPa | 0 mm | 3.58 m/s, 359° | - | - |
| 1777836753 | 24.44° C | 59% | 1016.7 hPa | 0 mm | 1.34 m/s, 353° | - | - |
| 1777836579 | 24.44° C | 59% | 1016.7 hPa | 0 mm | 1.34 m/s, 353° | - | - |
| 1777836433 | 25° C | 58% | 1016.9 hPa | 0 mm | 0.89 m/s, 253° | - | - |
| 1777836282 | 25° C | 58% | 1016.9 hPa | 0 mm | 0.89 m/s, 253° | - | - |
| 1777836096 | 25° C | 58% | 1016.9 hPa | 0 mm | 3.58 m/s, 0° | - | - |
| 1777835977 | 25° C | 58% | 1016.9 hPa | 0 mm | 3.58 m/s, 0° | - | - |
| 1777835876 | 25° C | 58% | 1016.9 hPa | 0 mm | 2.24 m/s, 37° | - | - |
| 1777835672 | 25° C | 58% | 1016.9 hPa | 0 mm | 2.24 m/s, 37° | - | - |
| 1777835596 | 25° C | 57% | 1016.9 hPa | 0 mm | 0.89 m/s, 339° | - | - |
| 1777835373 | 25° C | 57% | 1016.9 hPa | 0 mm | 0.89 m/s, 339° | - | - |
| 1777835327 | 25.56° C | 57% | 1016.9 hPa | 0 mm | 1.79 m/s, 53° | - | - |
| 1777835285 | 25.56° C | 57% | 1016.9 hPa | 0 mm | 1.79 m/s, 53° | - | - |
| 1777835073 | 25.56° C | 57% | 1016.9 hPa | 0 mm | 1.79 m/s, 53° | - | - |
* Rain latest hour (hover to see other rain measurements)
** Current wind speed in m/s (hover to see current wind gust speed)